Memphis, TN

5:40 PM CDT on April 24, 2017 (GMT -0500)
Memphis International

Weather History for KMEM - August, 2013

Change the Weather History Date:

Wednesday, August 7, 2013

  Actual Average Record
Temperature  
Mean Temperature 85 °F 83 °F  
Max Temperature 93 °F 92 °F 103 °F (1934)
Min Temperature 77 °F 74 °F 61 °F (1948)
Degree Days  
Heating Degree Days 0 0  
Month to date heating degree days 0 0  
Since 1 June heating degree days 0 0  
Since 1 July heating degree days 0 0  
Cooling Degree Days 20 18  
Month to date cooling degree days 114 126  
Year to date cooling degree days 1334 1434  
Since 1 June cooling degree days 1049 1113  
Growing Degree Days 35 (Base 50)    
Moisture  
Dew Point 73 °F    
Average Humidity 65    
Maximum Humidity 85    
Minimum Humidity 44    
Precipitation  
Precipitation 0.00 in 0.11 in 2.93 in (2008)
Month to date precipitation 0.37 0.81  
Year to date precipitation 44.15 33.31  
Snow  
Snow 0.00 in 0.00 in - ()
Month to date snowfall 0.0 0.0  
Since 1 June snowfall 0.0 0.0  
Since 1 July snowfall 0.0 0.0  
Snow Depth 0.00 in    
Sea Level Pressure  
Sea Level Pressure 29.90 in    
Wind  
Wind Speed 7 mph (South)    
Max Wind Speed 13 mph    
Max Gust Speed 23 mph    
Visibility 10 miles    
Events      
T = Trace of Precipitation, MM = Missing Value Source: NWS Daily Summary

Daily Weather History Graph

Daily Weather History Graph

Search for Another Location

Airport or City:

Trip Planner

Search our weather history database for the weather conditions in past years. The results will help you decide how hot, cold, wet, or windy it might be!

Date:

Astronomy

Aug. 07, 2013 Rise Set
Actual Time 6:14 AM CDT 7:56 PM CDT
Civil Twilight 5:46 AM CDT 8:24 PM CDT
Nautical Twilight 5:13 AM CDT 8:56 PM CDT
Astronomical Twilight 4:38 AM CDT 9:31 PM CDT
Moon 6:58 AM CDT (8/7) 8:09 PM CDT (8/7)
Length of Visible Light 14h 37m
Length of Day
13h 42m
New Moon, 1% of the Moon is Illuminated
Aug 7
New Moon
Aug 14
First Quarter
Aug 20
Full
Aug 28
Last Quarter
Sep 5
New

Hourly Weather History & Observations

Time (CDT) Temp. Heat Index Dew Point Humidity Pressure Visibility Wind Dir Wind Speed Gust Speed Precip Events Conditions
12:54 AM 79.0 °F - 72.0 °F 79% 29.91 in 10.0 mi South 9.2 mph - N/A   Scattered Clouds
1:54 AM 79.0 °F - 73.0 °F 82% 29.90 in 10.0 mi SSW 6.9 mph - N/A   Scattered Clouds
2:54 AM 79.0 °F - 73.0 °F 82% 29.87 in 10.0 mi SSW 10.4 mph - N/A   Scattered Clouds
3:54 AM 79.0 °F - 72.0 °F 79% 29.86 in 10.0 mi SSW 9.2 mph - N/A   Scattered Clouds
4:54 AM 78.1 °F - 72.0 °F 81% 29.87 in 10.0 mi South 8.1 mph - N/A   Scattered Clouds
5:54 AM 78.1 °F - 72.0 °F 81% 29.89 in 10.0 mi South 6.9 mph - N/A   Mostly Cloudy
6:54 AM 78.1 °F - 72.0 °F 81% 29.90 in 10.0 mi South 3.5 mph - N/A   Mostly Cloudy
7:54 AM 81.0 °F 85.8 °F 73.0 °F 77% 29.92 in 10.0 mi SSW 4.6 mph - N/A   Overcast
8:54 AM 84.0 °F 91.2 °F 73.9 °F 72% 29.94 in 10.0 mi SSW 6.9 mph - N/A   Overcast
9:54 AM 84.2 °F 92.3 °F 75.2 °F 74% 29.93 in 10.0 mi SW 3.5 mph - N/A   Overcast
10:54 AM 84.9 °F 93.3 °F 75.0 °F 72% 29.94 in 10.0 mi NNW 12.7 mph 18.4 mph N/A   Overcast
11:15 AM 84.2 °F 92.3 °F 75.2 °F 74% 29.97 in 10.0 mi North 10.4 mph - N/A   Overcast
11:54 AM 84.9 °F 92.1 °F 73.9 °F 69% 29.96 in 10.0 mi North 9.2 mph - N/A   Overcast
12:12 PM 86.0 °F 93.4 °F 73.4 °F 66% 29.97 in 10.0 mi NNE 8.1 mph - N/A   Overcast
12:54 PM 88.0 °F 95.6 °F 73.0 °F 61% 29.95 in 10.0 mi ENE 11.5 mph - N/A   Overcast
1:54 PM 91.0 °F 94.3 °F 66.9 °F 45% 29.92 in 10.0 mi NE 9.2 mph - N/A   Mostly Cloudy
2:54 PM 91.0 °F 94.3 °F 66.9 °F 45% 29.90 in 10.0 mi East 6.9 mph - N/A   Mostly Cloudy
3:54 PM 91.0 °F 95.6 °F 69.1 °F 48% 29.88 in 10.0 mi SSE 6.9 mph - N/A   Mostly Cloudy
4:54 PM 91.0 °F 96.6 °F 70.0 °F 50% 29.86 in 10.0 mi South 5.8 mph - N/A   Mostly Cloudy
5:54 PM 90.0 °F 97.9 °F 73.0 °F 57% 29.86 in 10.0 mi South 9.2 mph - N/A   Mostly Cloudy
6:54 PM 89.1 °F 100.2 °F 75.9 °F 65% 29.86 in 10.0 mi SSW 6.9 mph - N/A   Mostly Cloudy
7:54 PM 87.1 °F 95.4 °F 73.9 °F 65% 29.86 in 10.0 mi SW 3.5 mph - N/A   Mostly Cloudy
8:54 PM 84.9 °F 93.3 °F 75.0 °F 72% 29.89 in 10.0 mi NNW 3.5 mph - N/A   Partly Cloudy
9:54 PM 84.9 °F 93.3 °F 75.0 °F 72% 29.91 in 10.0 mi East 3.5 mph - N/A   Clear
10:54 PM 86.0 °F 96.0 °F 75.9 °F 72% 29.92 in 10.0 mi SSE 4.6 mph - N/A   Scattered Clouds
11:54 PM 84.0 °F 93.7 °F 77.0 °F 79% 29.91 in 10.0 mi South 5.8 mph - N/A   Mostly Cloudy